EW9544 Weather Reports


time (UTC)temp
C
wind
direction
speed
KPH
gust
KPH
rain 1hr
cm
rain 24hr
cm
rain mn
cm
humidity
%
barometer
mb
20260504175138 16 258 1.6 8.0 0.00 0.00 0.00 63 1009.0
20260504174636 16 260 1.6 6.4 0.00 0.00 0.00 61 1009.1
20260504174137 16 247 1.6 12.9 0.00 0.00 0.00 60 1009.2
20260504173636 16 248 1.6 12.9 0.00 0.00 0.00 60 1009.2
20260504173136 16 237 1.6 6.4 0.00 0.00 0.00 61 1009.2
20260504172636 16 263 1.6 6.4 0.00 0.00 0.00 62 1009.3
20260504172136 16 258 1.6 11.3 0.00 0.00 0.00 63 1009.4
20260504171635 16 287 1.6 12.9 0.00 0.00 0.00 61 1009.3
20260504171136 15 239 1.6 12.9 0.00 0.00 0.00 62 1009.5
20260504170636 16 264 1.6 9.7 0.00 0.00 0.00 60 1009.4
20260504170135 16 247 1.6 9.7 0.00 0.00 0.00 60 1009.6
20260504160133 15 260 1.6 9.7 0.00 0.00 0.00 61 1010.3
20260504151131 15 333 1.6 12.9 0.00 0.00 0.00 63 1011.1
20260504150630 15 249 0.0 4.8 0.00 0.00 0.00 63 1011.1
20260504150131 15 239 0.0 6.4 0.00 0.00 0.00 64 1011.2
20260504141128 14 270 1.6 11.3 0.00 0.00 0.00 65 1011.5
20260504140627 14 275 1.6 14.5 0.00 0.00 0.00 65 1011.5
20260504140127 13 268 1.6 14.5 0.00 0.00 0.00 64 1011.5
20260504130625 13 250 0.0 6.4 0.00 0.00 0.00 65 1012.0
20260504130125 13 281 1.6 6.4 0.00 0.00 0.00 66 1012.1
20260504120124 12 288 1.6 11.3 0.00 0.00 0.00 59 1012.2
20260504110622 11 296 1.6 9.7 0.00 0.00 0.00 65 1012.1
20260504110121 11 295 1.6 9.7 0.00 0.00 0.00 65 1012.1
20260504100118 10 320 0.0 3.2 0.00 0.00 0.00 61 1011.7
20260504081613 11 15 0.0 3.2 0.00 0.00 0.00 55 1011.2
20260504081114 11 9 0.0 1.6 0.00 0.00 0.00 55 1011.2
20260504080613 10 359 0.0 1.6 0.00 0.00 0.00 55 1011.2
20260504080114 10 8 0.0 1.6 0.00 0.00 0.00 55 1011.2
20260504070111 10 16 1.6 3.2 0.00 0.00 0.00 57 1010.8
20260504050606 7 32 0.0 1.6 0.00 0.00 0.00 73 1010.6
20260504050107 7 26 0.0 1.6 0.00 0.00 0.00 73 1010.6
20260504045605 7 25 0.0 1.6 0.00 0.00 0.00 72 1010.7
20260504044102 8 25 0.0 1.6 0.00 0.00 0.00 71 1010.6
20260504043601 8 25 0.0 1.6 0.00 0.00 0.00 71 1010.5
20260504042603 8 24 0.0 0.0 0.00 0.00 0.00 72 1010.5
20260504042101 8 25 0.0 0.0 0.00 0.00 0.00 71 1010.5
20260504041602 8 25 0.0 0.0 0.00 0.00 0.00 70 1010.4
20260504041101 8 25 0.0 0.0 0.00 0.00 0.00 71 1010.5
20260504040602 8 25 0.0 1.6 0.00 0.00 0.00 71 1010.5
20260504033600 8 32 0.0 1.6 0.00 0.00 0.00 66 1010.4
20260504032557 8 32 0.0 1.6 0.00 0.00 0.00 67 1010.3
20260504032057 8 33 0.0 1.6 0.00 0.00 0.00 67 1010.3
20260504031557 8 32 0.0 1.6 0.00 0.00 0.00 67 1010.3
20260504030557 9 32 0.0 1.6 0.00 0.00 0.00 63 1010.3
20260504025557 9 29 0.0 1.6 0.00 0.00 0.00 62 1010.3
20260504025057 10 21 0.0 0.0 0.00 0.00 0.00 59 1010.4
20260504024557 10 21 0.0 0.0 0.00 0.00 0.00 56 1010.4
20260504024056 10 21 0.0 0.0 0.00 0.00 0.00 55 1010.4
20260504023556 11 21 0.0 1.6 0.00 0.00 0.00 55 1010.4
20260504022055 10 21 0.0 1.6 0.00 0.00 0.00 48 1010.4
20260504021055 10 23 0.0 0.0 0.00 0.00 0.00 49 1010.3
20260504020055 10 23 0.0 0.0 0.00 0.00 0.00 50 1010.3
20260504015555 10 23 0.0 0.0 0.00 0.00 0.00 50 1010.2
20260504015053 10 23 0.0 0.0 0.00 0.00 0.00 51 1010.2
20260504014553 11 23 0.0 0.0 0.00 0.00 0.00 50 1010.2
20260504014053 11 23 0.0 0.0 0.00 0.00 0.00 50 1010.2
20260504013553 11 23 0.0 0.0 0.00 0.00 0.00 50 1010.2
20260504012553 11 23 0.0 0.0 0.00 0.00 0.00 50 1010.1
20260504012054 11 23 0.0 0.0 0.00 0.00 0.00 49 1010.0
20260504011553 11 23 0.0 0.0 0.00 0.00 0.00 47 1010.0
20260504011054 12 23 0.0 0.0 0.00 0.00 0.00 45 1010.0
20260504010554 12 23 0.0 0.0 0.00 0.00 0.00 46 1009.8
20260504010051 12 23 0.0 0.0 0.00 0.00 0.00 45 1009.8
20260504005552 12 23 0.0 0.0 0.00 0.00 0.00 45 1009.7
20260504004553 12 23 0.0 0.0 0.00 0.00 0.00 42 1009.6
20260504004051 13 23 0.0 0.0 0.00 0.00 0.00 44 1009.6
20260504003552 13 23 0.0 0.0 0.00 0.00 0.00 40 1009.5
20260504003051 13 23 0.0 1.6 0.00 0.00 0.00 38 1009.4
20260504002551 13 23 0.0 1.6 0.00 0.00 0.00 38 1009.3
20260504002051 13 23 0.0 1.6 0.00 0.00 0.00 37 1009.2
20260504001551 13 23 0.0 1.6 0.00 0.00 0.00 37 1009.2
20260504000550 13 30 0.0 1.6 0.00 0.00 0.00 36 1009.0
20260503235049 14 19 0.0 3.2 0.00 0.00 0.00 35 1008.8
20260503234549 14 32 0.0 3.2 0.00 0.00 0.00 34 1008.8
20260503234049 14 4 0.0 3.2 0.00 0.00 0.00 34 1008.7
20260503233550 14 8 0.0 3.2 0.00 0.00 0.00 34 1008.6
20260503233048 15 4 0.0 4.8 0.00 0.00 0.00 32 1008.6
20260503231547 15 23 0.0 3.2 0.00 0.00 0.00 32 1008.5
20260503231048 15 10 0.0 3.2 0.00 0.00 0.00 31 1008.4
20260503230047 15 40 0.0 8.0 0.00 0.00 0.00 31 1008.2
20260503224547 15 20 0.0 4.8 0.00 0.00 0.00 31 1008.2
20260503223547 15 11 1.6 9.7 0.00 0.00 0.00 31 1008.2
20260503222546 15 23 1.6 11.3 0.00 0.00 0.00 30 1008.2
20260503222045 15 4 0.0 4.8 0.00 0.00 0.00 31 1008.1
20260503221544 15 4 1.6 12.9 0.00 0.00 0.00 31 1008.1
20260503221046 15 25 1.6 12.9 0.00 0.00 0.00 31 1008.1
20260503220546 15 38 1.6 11.3 0.00 0.00 0.00 29 1008.1
20260503220046 15 324 1.6 24.1 0.00 0.00 0.00 30 1008.2
20260503215545 15 354 3.2 24.1 0.00 0.00 0.00 30 1008.1
20260503215044 15 10 1.6 14.5 0.00 0.00 0.00 30 1008.1
20260503214546 15 354 1.6 12.9 0.00 0.00 0.00 32 1008.1
20260503214043 15 24 1.6 17.7 0.00 0.00 0.00 32 1008.1
20260503213544 15 359 3.2 17.7 0.00 0.00 0.00 31 1008.0
20260503213042 15 10 3.2 20.9 0.00 0.00 0.00 32 1008.0
20260503212543 15 8 4.8 27.4 0.00 0.00 0.00 31 1008.0
20260503212042 15 287 4.8 27.4 0.00 0.00 0.00 31 1007.9
20260503211044 15 8 3.2 14.5 0.00 0.00 0.00 31 1007.8
20260503210544 15 25 3.2 25.7 0.00 0.00 0.00 32 1007.9
20260503210042 15 13 3.2 25.7 0.00 0.00 0.00 32 1008.0
20260503205543 15 14 3.2 17.7 0.00 0.00 0.00 31 1007.9
20260503205043 15 33 3.2 17.7 0.00 0.00 0.00 32 1007.9
20260503204543 15 4 1.6 17.7 0.00 0.00 0.00 33 1007.8
20260503204043 15 55 0.0 8.0 0.00 0.00 0.00 33 1007.9
20260503203044 15 61 1.6 12.9 0.00 0.00 0.00 33 1008.0
20260503202543 15 27 3.2 19.3 0.00 0.00 0.00 34 1008.0
20260503202044 15 20 4.8 20.9 0.00 0.00 0.00 33 1007.9
20260503201544 15 12 3.2 20.9 0.00 0.00 0.00 34 1007.8
20260503201042 15 37 3.2 19.3 0.00 0.00 0.00 34 1008.0
20260503200542 15 12 1.6 19.3 0.00 0.00 0.00 34 1008.1
20260503200042 15 8 1.6 8.0 0.00 0.00 0.00 35 1008.0
20260503195543 14 10 3.2 17.7 0.00 0.00 0.00 35 1008.1
20260503194543 14 60 8.0 37.0 0.00 0.00 0.00 37 1008.2
20260503193542 13 50 3.2 22.5 0.00 0.00 0.00 36 1008.2
20260503193041 13 49 4.8 22.5 0.00 0.00 0.00 37 1008.3
20260503192040 13 72 3.2 24.1 0.00 0.00 0.00 38 1008.4
20260503191541 13 59 1.6 17.7 0.00 0.00 0.00 38 1008.5
20260503190540 12 65 4.8 20.9 0.00 0.00 0.00 39 1008.7
20260503190041 13 25 3.2 20.9 0.00 0.00 0.00 39 1008.8
20260503185540 12 26 1.6 16.1 0.00 0.00 0.00 40 1008.7
20260503185041 13 16 3.2 25.7 0.00 0.00 0.00 39 1008.8
20260503184540 12 43 4.8 25.7 0.00 0.00 0.00 40 1008.8
20260503184040 13 350 1.6 14.5 0.00 0.00 0.00 40 1008.8
20260503183542 12 43 3.2 16.1 0.00 0.00 0.00 42 1008.9
20260503183040 12 19 4.8 20.9 0.00 0.00 0.00 40 1009.0
20260503182040 12 18 3.2 19.3 0.00 0.00 0.00 41 1008.9
20260503181542 12 44 3.2 25.7 0.00 0.00 0.00 41 1008.9
20260503181041 12 359 3.2 25.7 0.00 0.00 0.00 41 1009.0
20260503180540 12 54 3.2 19.3 0.00 0.00 0.00 40 1008.8
20260503180041 12 8 3.2 17.7 0.00 0.00 0.00 40 1008.9
20260503175538 12 58 4.8 22.5 0.00 0.00 0.00 41 1008.9